CAPE
3 3 1 0 0 0 0 0 0 0 0 0 0 0 0 0 0 0 0 0 9 7 12 9 17 16 16 9 5 4 16 121 465
1 1 0 0 0 0 0 0 0 0 0 0 0 0 0 0 0 0 0 0 12 13 13 24 20 17 13 11 11 9 28 13 49
1 0 0 0 0 0 0 0 0 0 0 0 0 0 0 0 0 0 0 18 14 20 26 17 16 21 25 19 16 13 15 14 8
0 0 0 0 0 0 0 0 0 0 0 0 0 0 0 0 0 0 0 40 25 23 23 22 16 20 20 18 11 14 17 17 12
0 0 0 0 0 0 0 0 0 0 0 0 0 0 0 0 0 6 21 32 27 31 47 20 29 38 16 30 14 20 14 15 28
0 0 0 0 0 0 0 0 0 0 0 0 0 0 0 0 0 0 25 13 19 19 43 60 53 53 37 21 10 24 14 22 11
0 0 0 0 0 0 0 0 0 0 0 0 0 0 0 0 0 7 55 34 29 13 9 40 54 42 31 27 21 47 39 16 25
0 0 0 0 0 0 0 0 0 0 0 0 0 0 0 0 0 12 57 38 44 24 39 61 65 50 62 75 60 68 56 44 33
0 0 0 0 0 0 0 0 0 0 0 0 0 0 0 0 0 0 19 24 36 23 22 70 74 58 31 34 42 43 47 56 56
0 0 0 0 0 0 0 0 0 0 0 0 0 0 0 0 0 0 0 5 8 8 9 37 73 68 72 67 69 65 58 46 41
0 0 0 0 0 0 0 0 0 0 0 0 0 0 0 0 0 0 0 0 0 4 8 9 44 62 58 41 38 36 19 15 5
0 0 0 0 0 0 0 0 0 0 0 0 0 0 0 0 0 0 0 0 0 3 5 4 12 28 51 42 21 16 5 3 8
0 0 0 0 0 0 0 0 0 0 0 0 0 0 0 0 0 0 0 0 0 0 1 1 0 3 4 7 13 10 4 10 18
0 0 0 0 0 0 0 0 0 0 0 0 0 0 0 0 0 0 0 0 0 0 0 0 0 6 11 16 18 21 13 9 18
0 0 0 0 0 0 0 0 0 0 0 0 0 0 0 0 0 0 0 0 0 0 0 0 0 0 4 10 12 11 9 8 8
0 0 0 0 0 0 0 0 0 0 0 0 0 0 0 0 0 0 0 0 0 0 0 0 0 0 0 0 0 4 6 10 11
0 0 0 0 0 0 0 0 0 0 0 0 0 0 0 0 0 0 0 0 0 0 0 0 0 0 0 0 0 0 0 3 9
0 0 0 0 0 0 0 0 0 0 0 0 0 0 0 0 0 0 0 0 0 0 0 0 0 0 0 0 0 0 0 1 10
0 0 0 0 0 0 0 0 0 0 0 0 0 0 0 0 0 0 0 0 0 0 0 0 0 0 0 0 0 0 0 2 6
0 0 0 0 0 0 0 0 0 0 0 0 0 0 0 0 0 0 0 0 0 0 0 0 0 0 0 0 0 0 0 0 0
CIN
0 0 0 0 0 0 0 0 0 0 0 0 0 0 0 0 0 0 0 0 0 0 0 0 0 0 0 0 0 0 -171 -44 0
0 0 0 0 0 0 0 0 0 0 0 0 0 0 0 0 0 0 0 0 0 0 0 0 0 0 0 0 0 0 -122 0 -74
0 0 0 0 0 0 0 0 0 0 0 0 0 0 0 0 0 0 0 -1 0 0 0 0 0 0 0 0 0 0 0 0 0
0 0 0 0 0 0 0 0 0 0 0 0 0 0 0 0 0 0 0 0 0 0 0 0 0 0 0 0 0 0 0 0 0
0 0 0 0 0 0 0 0 0 0 0 0 0 0 0 0 0 -40 -7 0 0 0 0 0 0 0 0 0 0 0 0 0 0
0 0 0 0 0 0 0 0 0 0 0 0 0 0 0 0 0 0 -1 -1 0 0 -1 0 0 0 0 0 0 0 0 0 0
0 0 0 0 0 0 0 0 0 0 0 0 0 0 0 0 0 -9 -1 -1 0 0 0 0 0 0 0 0 0 0 0 0 -1
0 0 0 0 0 0 0 0 0 0 0 0 0 0 0 0 0 -23 -4 -1 -1 -2 -1 0 0 0 0 0 0 0 0 0 0
0 0 0 0 0 0 0 0 0 0 0 0 0 0 0 0 0 0 -15 0 0 -1 -2 0 0 0 0 0 0 0 0 0 0
0 0 0 0 0 0 0 0 0 0 0 0 0 0 0 0 0 0 0 -1 -1 0 0 0 0 0 0 0 0 0 0 0 0
0 0 0 0 0 0 0 0 0 0 0 0 0 0 0 0 0 0 0 0 0 0 0 -3 0 0 0 0 0 0 -2 -1 0
0 0 0 0 0 0 0 0 0 0 0 0 0 0 0 0 0 0 0 0 0 0 0 0 -1 0 0 0 0 0 0 0 0
0 0 0 0 0 0 0 0 0 0 0 0 0 0 0 0 0 0 0 0 0 0 0 0 0 0 0 0 0 0 0 0 0
0 0 0 0 0 0 0 0 0 0 0 0 0 0 0 0 0 0 0 0 0 0 0 0 0 0 0 0 0 0 0 0 0
0 0 0 0 0 0 0 0 0 0 0 0 0 0 0 0 0 0 0 0 0 0 0 0 0 0 0 0 0 0 0 0 0
0 0 0 0 0 0 0 0 0 0 0 0 0 0 0 0 0 0 0 0 0 0 0 0 0 0 0 0 0 0 0 0 0
0 0 0 0 0 0 0 0 0 0 0 0 0 0 0 0 0 0 0 0 0 0 0 0 0 0 0 0 0 0 0 0 0
0 0 0 0 0 0 0 0 0 0 0 0 0 0 0 0 0 0 0 0 0 0 0 0 0 0 0 0 0 0 0 0 0
0 0 0 0 0 0 0 0 0 0 0 0 0 0 0 0 0 0 0 0 0 0 0 0 0 0 0 0 0 0 0 0 0
0 0 0 0 0 0 0 0 0 0 0 0 0 0 0 0 0 0 0 0 0 0 0 0 0 0 0 0 0 0 0 0 0
Wind_Speed
14 14 14 14 13 14 14 13 13 12 11 12 13 15 17 14 8 7 8 5 12 13 13 13 13 13 14 14 14 13 14 13 14
14 14 14 13 13 13 14 13 13 12 12 12 14 14 17 8 7 6 6 6 14 14 14 15 14 14 13 14 14 14 15 15 15
13 14 14 14 13 13 13 13 13 12 12 13 14 17 14 8 6 6 5 11 15 15 16 14 14 13 13 14 14 15 14 15 14
13 13 13 13 13 13 12 12 12 12 12 11 13 14 15 7 5 6 2 12 16 16 15 15 14 14 13 13 14 14 14 15 14
13 11 12 12 12 12 12 12 11 10 9 8 14 15 15 7 6 4 7 14 17 15 12 12 12 15 14 15 15 14 13 14 15
7 9 9 10 11 11 11 9 7 7 7 8 13 13 5 6 5 3 13 13 16 12 17 16 16 16 15 14 13 13 15 14 15
6 6 8 9 8 8 9 7 3 2 3 3 8 5 7 6 6 5 14 16 16 13 13 15 12 12 14 14 14 13 17 16 16
4 2 3 2 3 2 3 4 3 3 2 5 5 6 6 4 3 9 15 16 16 15 14 15 17 17 16 17 17 19 18 19 17
4 3 3 2 1 3 1 2 5 7 7 7 7 7 5 4 3 7 15 14 16 14 12 18 16 16 16 16 17 17 17 18 19
5 4 4 4 2 3 3 3 4 6 7 7 8 6 6 6 3 3 12 13 13 13 11 16 18 17 18 19 20 20 21 21 21
5 5 4 5 4 3 3 3 4 4 5 6 7 7 6 6 6 4 5 12 12 12 13 12 16 17 20 20 20 21 19 19 20
6 5 3 4 4 6 4 4 4 5 4 6 6 6 7 6 6 5 4 5 10 12 13 12 13 15 17 18 18 18 18 18 17
6 5 5 4 4 4 4 3 4 4 5 4 4 5 5 7 6 5 3 4 4 8 13 14 15 13 13 14 15 16 17 16 15
6 5 5 5 4 4 3 3 4 3 3 4 4 4 5 5 5 6 6 5 4 3 10 12 13 14 15 15 15 16 15 15 15
6 5 5 5 4 4 3 4 3 3 5 4 4 4 4 4 4 5 4 5 5 5 5 4 6 14 15 15 16 15 15 14 14
7 5 5 5 5 5 5 3 5 3 3 4 3 4 4 4 3 3 4 4 4 5 5 3 3 5 16 15 15 15 14 14 14
7 7 6 6 5 6 5 4 3 2 1 4 3 2 4 3 2 3 4 4 3 4 5 6 5 5 4 9 14 15 14 14 14
8 8 6 6 5 5 5 5 6 4 1 2 4 3 3 2 2 2 3 4 3 3 5 6 5 6 5 7 8 14 14 15 15
7 8 7 7 5 6 5 5 4 4 4 1 1 2 4 4 1 2 2 3 4 4 3 5 5 5 4 8 10 12 14 15 16
8 8 7 7 5 6 7 5 5 3 4 3 2 2 3 3 4 2 1 3 2 2 4 4 5 5 4 4 6 13 14 16 16
Wind_Direction
106 101 99 94 94 93 91 89 86 82 82 82 70 76 86 70 59 58 53 63 78 79 78 75 71 64 61 56 53 50 50 50 40
109 106 100 97 94 93 91 89 86 83 82 77 68 67 82 79 72 65 58 68 78 79 79 76 71 67 65 61 57 54 49 62 47
106 102 97 95 92 90 88 88 86 85 88 81 73 65 87 79 73 59 54 77 80 82 74 73 75 75 72 67 64 61 56 50 50
104 100 98 94 92 87 83 83 82 85 84 71 60 61 75 64 51 52 51 84 77 73 71 74 72 66 58 55 63 52 58 59 53
99 89 95 96 95 94 90 85 87 89 80 63 63 88 69 48 46 24 63 71 69 66 63 75 71 71 68 54 62 66 60 55 58
95 100 96 98 101 104 106 95 80 70 57 51 74 82 69 49 33 15 70 69 69 63 58 71 67 68 64 60 66 77 71 64 56
120 119 115 107 108 114 113 119 128 349 20 49 80 84 76 55 38 28 76 73 68 74 59 49 47 66 63 67 70 68 77 71 65
122 114 89 90 102 20 35 83 84 104 106 77 87 85 78 68 48 44 57 73 66 64 66 54 77 74 69 73 75 66 67 67 70
143 157 147 144 137 99 106 58 78 87 82 83 86 91 92 79 57 47 53 63 73 67 53 54 77 79 76 73 70 69 68 69 66
152 147 133 117 117 93 82 68 83 85 87 84 94 93 98 94 72 61 69 66 62 74 72 54 63 80 78 79 77 76 67 60 56
132 128 121 116 110 103 118 110 98 104 99 93 101 107 99 93 85 62 63 77 75 72 67 53 57 75 78 74 70 67 64 57 52
128 126 127 132 122 116 95 63 78 84 87 100 94 101 111 109 96 82 64 59 61 71 72 66 59 64 72 74 68 66 61 59 56
126 127 136 146 118 111 101 109 72 87 99 98 85 97 93 107 108 101 98 70 50 69 76 68 62 61 68 71 67 64 62 58 55
130 132 141 131 117 115 130 100 113 103 87 98 87 87 98 108 102 94 95 107 94 69 77 71 63 61 69 73 74 68 63 57 51
132 139 138 130 119 113 102 116 91 131 131 97 81 77 89 104 106 107 96 98 107 106 81 56 63 70 66 63 64 64 62 56 50
144 143 141 141 137 152 142 112 116 67 116 97 43 20 34 88 91 112 105 82 93 111 127 95 62 61 69 64 57 53 51 49 44
148 146 152 154 136 141 145 136 118 111 136 133 101 102 346 9 65 104 109 105 90 87 107 123 98 83 65 61 53 42 37 35 35
150 156 150 154 142 155 153 151 139 142 112 145 141 125 184 130 345 49 104 112 95 79 90 110 110 92 75 59 40 40 33 29 25
157 158 152 153 144 148 160 160 154 135 152 100 97 97 146 153 136 343 65 110 113 129 92 117 102 98 73 52 44 40 30 25 18
164 159 153 149 147 148 147 144 149 140 143 148 147 95 62 85 133 160 113 45 34 112 132 122 119 86 72 56 43 44 28 16 9